• Em Portugal
  • Lista de países
  • Para 7 dias
  • Temperatura da água
  • Mapas de satélite
  • Mapa do tempo
  • Widgets de tempo
  • user-avatar
    Iniciar Sessão

    Previsão horária em Pischiki

    Hoje, 19 Setembro, Quarta-feira

    Tempo Temperatura Precipitação Vento Pressão Humidade
    00:00 +13°C° 0 mm 2 m/s 745 mmHg 91%
    01:00 +13°C° 0 mm 2 m/s 745 mmHg 92%
    02:00 +13°C° 0 mm 2 m/s 745 mmHg 93%
    03:00 +13°C° 0 mm 2 m/s 745 mmHg 93%
    04:00 +12°C° 0 mm 2 m/s 744 mmHg 93%
    05:00 +11°C° 0 mm 3 m/s 744 mmHg 94%
    06:00 +12°C° 0 mm 3 m/s 744 mmHg 90%
    07:00 +14°C° 0 mm 3 m/s 744 mmHg 87%
    08:00 +16°C° 0 mm 3 m/s 744 mmHg 83%
    09:00 +18°C° 0 mm 4 m/s 744 mmHg 78%
    10:00 +19°C° 0 mm 4 m/s 744 mmHg 73%
    11:00 +21°C° 0 mm 4 m/s 744 mmHg 68%
    12:00 +22°C° 0 mm 4 m/s 744 mmHg 66%
    13:00 +23°C° 0 mm 5 m/s 744 mmHg 64%
    14:00 +25°C° 0 mm 5 m/s 744 mmHg 61%
    15:00 +23°C° 0 mm 4 m/s 744 mmHg 66%
    16:00 +22°C° 0 mm 4 m/s 744 mmHg 70%
    17:00 +21°C° 0 mm 3 m/s 743 mmHg 74%
    18:00 +20°C° 0 mm 3 m/s 743 mmHg 78%
    19:00 +19°C° 0 mm 3 m/s 743 mmHg 82%
    20:00 +18°C° 0 mm 3 m/s 743 mmHg 85%
    21:00 +17°C° 0 mm 3 m/s 743 mmHg 88%
    22:00 +17°C° 0 mm 3 m/s 743 mmHg 90%
    23:00 +16°C° 0 mm 3 m/s 743 mmHg 92%

    Amanhã, 20 Setembro, Quinta-feira

    Tempo Temperatura Precipitação Vento Pressão Humidade
    00:00 +16°C° 0 mm 3 m/s 743 mmHg 93%
    01:00 +16°C° 0 mm 3 m/s 744 mmHg 93%
    02:00 +14°C° 0 mm 3 m/s 744 mmHg 94%
    03:00 +14°C° 0 mm 3 m/s 744 mmHg 95%
    04:00 +15°C° 0 mm 2 m/s 744 mmHg 95%
    05:00 +15°C° 0 mm 2 m/s 744 mmHg 96%
    06:00 +16°C° 0 mm 2 m/s 744 mmHg 94%
    07:00 +16°C° 0 mm 2 m/s 744 mmHg 92%
    08:00 +17°C° 0 mm 2 m/s 745 mmHg 90%
    09:00 +19°C° 0 mm 2 m/s 745 mmHg 82%
    10:00 +20°C° 0 mm 2 m/s 745 mmHg 75%
    11:00 +22°C° 0 mm 3 m/s 745 mmHg 68%
    12:00 +22°C° 0 mm 3 m/s 745 mmHg 65%
    13:00 +24°C° 0 mm 3 m/s 745 mmHg 62%
    14:00 +24°C° 0 mm 3 m/s 745 mmHg 59%
    15:00 +24°C° 0 mm 2 m/s 745 mmHg 63%
    16:00 +23°C° 0 mm 2 m/s 745 mmHg 67%
    17:00 +21°C° 0 mm 2 m/s 745 mmHg 71%
    18:00 +20°C° 0 mm 1 m/s 745 mmHg 74%
    19:00 +19°C° 0 mm 1 m/s 745 mmHg 78%
    20:00 +18°C° 0 mm 1 m/s 745 mmHg 82%
    21:00 +16°C° 0 mm 1 m/s 745 mmHg 82%
    22:00 +16°C° 0 mm 1 m/s 745 mmHg 83%
    23:00 +16°C° 0 mm 1 m/s 745 mmHg 83%

    Depois de amanhã, 21 Setembro, Sexta-feira

    Tempo Temperatura Precipitação Vento Pressão Humidade
    00:00 +16°C° 0 mm 1 m/s 745 mmHg 84%
    01:00 +15°C° 0 mm 1 m/s 745 mmHg 85%
    02:00 +15°C° 0 mm 1 m/s 745 mmHg 86%
    03:00 +15°C° 0 mm 1 m/s 745 mmHg 87%
    04:00 +15°C° 0 mm 1 m/s 745 mmHg 89%
    05:00 +15°C° 0 mm 2 m/s 745 mmHg 91%
    06:00 +16°C° 0 mm 2 m/s 745 mmHg 88%
    07:00 +17°C° 0 mm 2 m/s 745 mmHg 86%
    08:00 +18°C° 0 mm 2 m/s 745 mmHg 84%
    09:00 +20°C° 0 mm 2 m/s 745 mmHg 78%
    10:00 +23°C° 0 mm 2 m/s 745 mmHg 73%
    11:00 +24°C° 0 mm 2 m/s 745 mmHg 68%
    12:00 +25°C° 0 mm 3 m/s 745 mmHg 65%
    13:00 +25°C° 0 mm 3 m/s 745 mmHg 63%
    14:00 +26°C° 0 mm 3 m/s 745 mmHg 60%
    15:00 +25°C° 0.1 mm 3 m/s 745 mmHg 64%
    16:00 +24°C° 0.1 mm 2 m/s 744 mmHg 68%
    17:00 +23°C° 0.1 mm 2 m/s 744 mmHg 72%
    18:00 +21°C° 0 mm 2 m/s 744 mmHg 75%
    19:00 +20°C° 0 mm 3 m/s 744 mmHg 79%
    20:00 +18°C° 0 mm 3 m/s 744 mmHg 82%
    21:00 +18°C° 0 mm 3 m/s 743 mmHg 83%
    22:00 +17°C° 0 mm 3 m/s 743 mmHg 84%
    23:00 +17°C° 0 mm 3 m/s 743 mmHg 85%

    22 Setembro, Sábado

    Tempo Temperatura Precipitação Vento Pressão Humidade
    00:00 +16°C° 0 mm 3 m/s 743 mmHg 85%
    01:00 +15°C° 0 mm 4 m/s 742 mmHg 84%
    02:00 +15°C° 0 mm 4 m/s 742 mmHg 84%
    03:00 +15°C° 0 mm 4 m/s 742 mmHg 83%
    04:00 +14°C° 0 mm 4 m/s 742 mmHg 82%
    05:00 +14°C° 0 mm 5 m/s 741 mmHg 81%
    06:00 +15°C° 0 mm 5 m/s 741 mmHg 78%
    07:00 +16°C° 0 mm 6 m/s 741 mmHg 76%
    08:00 +17°C° 0 mm 6 m/s 740 mmHg 73%
    09:00 +19°C° 0 mm 6 m/s 740 mmHg 68%
    10:00 +21°C° 0 mm 7 m/s 740 mmHg 62%
    11:00 +23°C° 0 mm 7 m/s 739 mmHg 57%
    12:00 +23°C° 0 mm 7 m/s 739 mmHg 55%
    13:00 +24°C° 0 mm 7 m/s 738 mmHg 53%
    14:00 +26°C° 0 mm 7 m/s 738 mmHg 51%
    15:00 +24°C° 0 mm 6 m/s 738 mmHg 55%
    16:00 +22°C° 0 mm 5 m/s 738 mmHg 60%
    17:00 +21°C° 0 mm 4 m/s 737 mmHg 64%
    18:00 +19°C° 0.3 mm 5 m/s 737 mmHg 71%
    19:00 +16°C° 0.3 mm 5 m/s 738 mmHg 78%
    20:00 +13°C° 0.3 mm 5 m/s 738 mmHg 85%
    21:00 +12°C° 0.4 mm 5 m/s 738 mmHg 87%
    22:00 +10°C° 0.4 mm 5 m/s 738 mmHg 88%
    23:00 +10°C° 0.4 mm 5 m/s 738 mmHg 89%

    23 Setembro, Domingo

    Tempo Temperatura Precipitação Vento Pressão Humidade
    00:00 +9°C° 0.8 mm 5 m/s 738 mmHg 89%
    01:00 +8°C° 0.8 mm 5 m/s 738 mmHg 89%
    02:00 +7°C° 0.8 mm 6 m/s 738 mmHg 89%
    03:00 +7°C° 1.3 mm 5 m/s 738 mmHg 90%
    04:00 +7°C° 1.3 mm 5 m/s 738 mmHg 91%
    05:00 +7°C° 1.3 mm 4 m/s 739 mmHg 92%
    06:00 +7°C° 0.8 mm 4 m/s 739 mmHg 92%
    07:00 +7°C° 0.8 mm 4 m/s 739 mmHg 92%
    08:00 +9°C° 0.8 mm 3 m/s 739 mmHg 91%
    09:00 +10°C° 0.2 mm 3 m/s 739 mmHg 87%
    10:00 +11°C° 0.2 mm 4 m/s 739 mmHg 83%
    11:00 +11°C° 0.2 mm 4 m/s 740 mmHg 79%
    12:00 +12°C° 0 mm 4 m/s 740 mmHg 73%
    13:00 +13°C° 0 mm 4 m/s 740 mmHg 68%
    14:00 +14°C° 0 mm 4 m/s 740 mmHg 62%
    15:00 +13°C° 0 mm 4 m/s 740 mmHg 66%
    16:00 +13°C° 0 mm 3 m/s 740 mmHg 70%
    17:00 +12°C° 0 mm 3 m/s 740 mmHg 74%
    18:00 +12°C° 0 mm 2 m/s 740 mmHg 79%
    19:00 +10°C° 0 mm 2 m/s 740 mmHg 83%
    20:00 +8°C° 0 mm 2 m/s 740 mmHg 88%
    21:00 +8°C° 0 mm 2 m/s 740 mmHg 90%
    22:00 +8°C° 0 mm 2 m/s 740 mmHg 91%
    23:00 +7°C° 0 mm 2 m/s 740 mmHg 92%

    24 Setembro, Segunda-feira

    Tempo Temperatura Precipitação Vento Pressão Humidade
    00:00 +8°C° 0 mm 1 m/s 740 mmHg 92%
    01:00 +8°C° 0 mm 1 m/s 740 mmHg 92%
    02:00 +6°C° 0 mm 0 m/s 741 mmHg 92%
    03:00 +7°C° 0 mm 1 m/s 741 mmHg 92%
    04:00 +7°C° 0 mm 1 m/s 741 mmHg 92%
    05:00 +7°C° 0 mm 1 m/s 741 mmHg 92%
    06:00 +8°C° 0 mm 1 m/s 741 mmHg 90%
    07:00 +8°C° 0 mm 2 m/s 741 mmHg 87%
    08:00 +9°C° 0 mm 3 m/s 741 mmHg 84%
    09:00 +10°C° 0 mm 3 m/s 741 mmHg 78%
    10:00 +12°C° 0 mm 3 m/s 740 mmHg 72%
    11:00 +13°C° 0 mm 4 m/s 740 mmHg 66%
    12:00 +14°C° 0 mm 4 m/s 740 mmHg 64%
    13:00 +14°C° 0 mm 5 m/s 739 mmHg 61%
    14:00 +15°C° 0 mm 5 m/s 738 mmHg 59%
    15:00 +14°C° 0 mm 5 m/s 738 mmHg 63%
    16:00 +13°C° 0 mm 4 m/s 738 mmHg 67%
    17:00 +13°C° 0 mm 3 m/s 738 mmHg 71%
    18:00 +12°C° 0.1 mm 4 m/s 738 mmHg 72%
    19:00 +12°C° 0.1 mm 4 m/s 738 mmHg 73%
    20:00 +11°C° 0.1 mm 4 m/s 738 mmHg 75%
    21:00 +11°C° 0.3 mm 4 m/s 738 mmHg 76%
    22:00 +11°C° 0.3 mm 4 m/s 737 mmHg 77%
    23:00 +11°C° 0.3 mm 4 m/s 737 mmHg 79%
    Mostrar mais